Regional Weather Roundup
Issued by NWS Grand Forks, ND

Home | Current Version | Previous Version | Graphics & Text | Print | Product List | Glossary On
Versions: 1 2 3 4 5 6 7 8 9 10 11 12 13 14 15 16 17 18 19 20 21 22 23 24 25 26 27 28 29 30 31 32 33 34 35 36 37 38 39 40 41 42 43 44 45 46 47 48 49 50
000
ASUS43 KFGF 210210
RWRFGF
PRAIRIE TO PINES  WEATHER ROUNDUP
NATIONAL WEATHER SERVICE EASTERN NORTH DAKOTA/GRAND FORKS ND
900 PM CDT WED AUG 20 2014

 **SATELLITE DATA USED TO AUGMENT SKY COVER AT AUTOMATED STATIONS**
 *****  WEATHER ACROSS EASTERN NORTH DAKOTA  *****

CITY           SKY/WX    TMP DP  RH WIND       PRES   REMARKS
GRAND FORKS    MOCLDY    75  68  78 SE8       29.76F
GRAND FRKS AFB MOCLDY    74  71  89 SE9       29.77F
GRAND FRKS NWS   N/A     70 N/A N/A SE7         N/A
DEVILS LAKE    CLOUDY    75  64  69 E13       29.74S
FARGO          MOCLDY    75  68  78 E8        29.78R
WAHPETON ARPT  PTCLDY    73  64  73 E6        29.79R
$$

 ***** WEATHER ACROSS CENTRAL AND WESTERN NORTH DAKOTA  *****

CITY           SKY/WX    TMP DP  RH WIND       PRES   REMARKS
BISMARCK       RAIN      69  67  93 E13       29.72F
MINOT          CLOUDY    65  63  93 NE5       29.74R
JAMESTOWN      CLOUDY    74  68  81 E8        29.75F
MINOT AFB      CLOUDY    66  66  99 E6        29.74S
GARRISON         N/A     69  67  93 E8        29.74R
WILLISTON      MOCLDY    69  63  81 W5        29.75R
DICKINSON      PTCLDY    66  61  84 NW7       29.76R
HETTINGER      CLEAR     65  61  87 CALM      29.79R
$$

 *****  OTHER AIRPORT OBSERVATIONS IN OUR AREA  *****

CITY           SKY/WX    TMP DP  RH WIND       PRES   REMARKS
WALHALLA         N/A     70  70 100 SE5       29.75S
GRAFTON AIRPOR FAIR      73  68  83 SE7       29.76F
VALLEY CITY AR FAIR      75  72  88 SE12      29.78S
CANDO          FAIR      73  68  83 SE10      29.76S
CAVALIER APRT  FAIR      75  68  78 S7        29.75F
GWINNER        CLEAR     75  72  88 E10       29.77S
ROLLA          FAIR      70  70 100 S9        29.78R
 ***** THE ABOVE OBSERVATIONS ARE NON NWS ARE NOT QUALITY
       CONTROLLED AND MAY MIS-REPORT RAIN FOR SNOW...
$$

  *****  WEATHER ACROSS NORTHERN MINNESOTA  *****

CITY           SKY/WX    TMP DP  RH WIND       PRES   REMARKS
FLAG ISLAND    PTCLDY    73  63  68 SE5       29.85R
WARROAD        CLEAR     70  64  83 SE9       29.85R
ROSEAU         PTCLDY    72  63  73 SE6       29.83S
HALLOCK        PTCLDY    75  66  73 SE9       29.77F
THF RVR FALLS  PTCLDY    72  64  78 E8        29.82S
BAUDETTE       CLEAR     67  61  81 E6        29.87R
WASKISH        CLEAR     66  63  88 CALM      29.87S
CROOKSTON      PTCLDY    72  66  83 SE7       29.80S
$$
  *****  WEATHER ACROSS CENTRAL AND WEST MINNESOTA  *****

CITY           SKY/WX    TMP DP  RH WIND       PRES   REMARKS
FOSSTON        PTCLDY    66  59  77 E6        29.84S
BEMIDJI        MOCLDY    71  63  75 SE9       29.87S
PARK RAPIDS    MOCLDY    71  65  81 E7        29.87R
ELBOW LAKE     FAIR      74  67  80 E7        29.82R
WADENA         MOCLDY    72  64  78 E7        29.86R
DETROIT LAKES  MOCLDY    73  64  73 E8        29.85S
MOORHEAD       MOCLDY    75  72  88 SE6       29.80R
FERGUS FALLS   PTCLDY    75  64  69 E8        29.80S
MORRIS MN      PTCLDY    73  66  78 E8        29.80R
STAPLES        MOCLDY    70  63  78 E5        29.87R
$$
  *****  WEATHER ELSEWHERE ACROSS MINNESOTA  *****

CITY           SKY/WX    TMP DP  RH WIND       PRES   REMARKS
DULUTH         PTCLDY    62  56  80 E6        29.93R
INTRNTL FALLS  PTCLDY    63  59  87 SE5       29.89R
ELY            CLOUDY    66  61  82 SE6       29.94R
CLOQUET        CLEAR     63  57  82 E3        29.93R
WHEATON        MOCLDY    72  66  83 E9        29.80S
BRAINERD       MOCLDY    68  63  84 CALM      29.89R
HIBBING        CLEAR     61  59  93 CALM      29.92R
ALEXANDRIA     PTCLDY    73  65  75 SE9       29.86R
SAINT CLOUD    MOCLDY    74  65  73 E7        29.86R
MINNEAPOLIS    MOCLDY    76  66  71 E13       29.85S
$$

  *****  WEATHER ACROSS SOUTH DAKOTA  *****

CITY           SKY/WX    TMP DP  RH WIND       PRES   REMARKS
SIOUX FALLS    CLOUDY    73  69  87 SE7       29.77S
BROOKINGS      NOT AVBL
WATERTOWN      CLOUDY    74  68  81 SE7       29.77S
HURON          CLEAR     76  69  79 SE7       29.71R
SISSETON         N/A     75  70  84 SE7       29.76S
ABERDEEN       MOCLDY    74  68  81 E10       29.72R
MITCHELL       MOCLDY    77  72  84 SE10      29.71S
PIERRE         CLEAR     79  71  76 SE17      29.64R
MOBRIDGE       LGT RAIN  75  68  78 E18G28    29.62F
RAPID CITY     CLEAR     73  55  53 N9        29.78R
$$

  *****  SOME WEATHER IN NEARBY STATES *****

CITY           SKY/WX    TMP DP  RH WIND       PRES   REMARKS
GLASGOW MT     CLEAR     75  55  49 W3        29.76R
GREAT FALLS MT CLOUDY    68  48  48 W8        29.87R THUNDER
CHEYENNE WY    MOCLDY    70  45  40 W9        30.02S
SCOTTSBLUFF NE PTCLDY    80  52  37 W7        29.85R
OMAHA NE       PTCLDY    83  72  69 SE15      29.77R
DES MOINES IA  PTCLDY    78  73  84 S5        29.82S
DAVENPORT IA   MOCLDY    71  68  90 N3        29.91R
CHICAGO IL     PTCLDY    78  67  68 W10       29.91R
EAU CLAIRE WI  PTCLDY    68  64  87 E5        29.91R
LA CROSSE WI   PTCLDY    77  68  73 E3        29.88R
$$

  *****  SOME NATIONAL WEATHER *****

CITY           SKY/WX    TMP DP  RH WIND       PRES   REMARKS
LA GUARDIA NY  PTCLDY    73  59  61 S9        30.01S
RALEIGH NC     PTCLDY    71  68  90 CALM      30.02R
ATLANTA GA     CLOUDY    74  70  87 W8        30.10F
NEW ORLEANS LA MOCLDY    80  71  74 SW7       30.07R
OKLAHOMA CITY  CLEAR     86  65  49 S16       29.88R
ALBUQUERQUE NM PTCLDY    81  45  28 W7        30.02S
SALT LAKE CITY MOCLDY    75  51  43 S10       29.91R
LOS ANGELES CA PTCLDY    70  61  73 W12       29.89S
BOISE ID       MOCLDY    82  45  27 NW3       29.78F
SEATTLE WA     MOSUNNY   68  52  56 SW8       29.98F
$$

*** WEATHER ACROSS MANITOBA...SASKATCHEWAN AND ONTARIO ***
                ***ONTARIO***

CITY           SKY/WX    TMP DP  RH WIND       PRES   REMARKS
GERALDTON      CLOUDY    64  61  88 E2        29.98R
THUNDER BAY    DRIZZLE   63  61  94 S3        29.96R
SIOUX LOOKOUT  PTCLDY    68  57  68 E3        29.91R
TORONTO        CLOUDY    68  64  88 VRB2      29.91R
BIG TROUT LK   CLEAR     70  54  56 SE6       29.92R
PICKLE LAKE    PTCLDY    68  55  64 SE10      29.94R
DRYDEN         CLEAR     70  59  68 SE5       29.90R
KENORA         PTCLDY    70  59  68 SE6       29.89R
$$
                *** MANITOBA***

CITY           SKY/WX    TMP DP  RH WIND       PRES   REMARKS
BRANDON        CLOUDY    70  66  88 NW6       29.77R
DAUPHIN        CLOUDY    72  64  78 S6        29.72R
ISLAND LAKE    PTCLDY    77  59  53 SE6       29.78S
PILOT MOUND      N/A     68  64  88 SE8         N/A
THE PAS        CLOUDY    68  66  94 W6        29.68R
THOMPSON       CLOUDY    73  63  68 SE3       29.68R
WINNIPEG       CLOUDY    77  66  69 SE13      29.77S
LYNN LAKE      LGT RAIN  55  54  94 MISG      29.73F
CHURCHILL      MOCLDY    48  48 100 NE12G18   29.81F
GILLAM         PTCLDY    73  59  60 SE5       29.75R
$$
                ***SASKATCHEWAN***

CITY           SKY/WX    TMP DP  RH WIND       PRES   REMARKS
ESTEVAN        MOCLDY    66  64  94 NW2       29.75S
KINDERSLEY     CLOUDY    64  54  68 N13G20    29.86R
LLOYDMINSTER   MOCLDY    63  54  72 NW5       29.90R
PRINCE ALBERT  PTCLDY    61  59  94 N3        29.81R
REGINA         NOT AVBL
YORKTON        CLOUDY    70  61  73 SW6       29.74R
N. BATTLEFORD  CLEAR     63  57  82 N9        29.86R
LA RONGE       CLOUDY    61  57  88 N12       29.82R
SASKATOON      PTCLDY    66  59  77 N8        29.81R
SWIFT CURRENT  CLEAR     66  50  55 N9        29.83R
$$
NOTE: THESE ARE AUTOMATED STATIONS WITH LIMITED QUALITY CONTROL
      "FAIR" INDICATES FEW OR NO CLOUDS BELOW 12,000 FEET WITH NO
      SIGNIFICANT WEATHER AND/OR OBSTRUCTIONS TO VISIBILITY.
      SKY/WX - SKY CONDITION AND SIGNIFICANT WEATHER.
      TMP - AIR TEMPERATURE.    DP   - DEWPOINT TEMPERATURE.
      RH  - RELATIVE HUMIDITY.  PRES - PRESSURE.
      HX  - HEAT INDEX.         WCI  - WIND CHILL INDEX.
$



USA.gov is the U.S. government's official web portal to all federal, state and local government web resources and services.